Regional Weather Roundup
Issued by NWS

Home | Current Version | Previous Version | Text Only | Print | Product List | Glossary Off
Versions: 1 2 3 4 5 6 7 8 9 10 11 12 13 14 15 16 17 18 19 20 21 22 23 24 25 26 27 28 29 30 31 32 33 34 35 36 37 38 39 40 41 42 43 44 45 46 47 48 49 50

000
ASUS45 KBOU 291307
RWRCO

WEATHER ROUNDUP FOR COLORADO
NATIONAL WEATHER SERVICE DENVER/BOULDER CO
700 AM MDT FRI AUG 29 2014

NOTE: "FAIR" INDICATES FEW OR NO CLOUDS BELOW 12000 FEET WITH NO
SIGNIFICANT WEATHER AND/OR OBSTRUCTIONS TO VISIBILITY.

COZ001>005-013-030-031-291400-
...NORTHWEST COLORADO...

CITY           SKY/WX    TMP DP  RH WIND       PRES   REMARKS
CRAIG          CLEAR     45  43  93 CALM      30.24R
HAYDEN         PTCLDY    46  43  87 E9        30.26S
MEEKER         CLEAR     46  43  89 NE3       30.27R
MOUNT WERNER   NOT AVBL
STEAMBOAT SPGS CLEAR     44  43  98 CALM      30.29R
WALDEN         MOCLDY    37  36  93 SE3       30.33R
$$

COZ006>008-011-291400-
...WEST CENTRAL VALLEYS...

CITY           SKY/WX    TMP DP  RH WIND       PRES   REMARKS
GRAND JUNCTION PTCLDY    56  51  84 SE10      30.17R
MONTROSE       PTCLDY    50  44  80 SE8       30.26R
EAGLE          PTCLDY    43  43 100 CALM      30.35R
RIFLE          PTCLDY    50  47  89 CALM      30.25R
DELTA          CLOUDY    55  49  80 E3        30.23R
NUCLA          MOCLDY    50  43  76 E5        30.28R
$$

COZ017>023-064>068-291400-
...SOUTHWEST COLORADO...

CITY           SKY/WX    TMP DP  RH WIND       PRES   REMARKS
DURANGO        CLEAR     43  37  79 CALM      30.25R
CORTEZ         CLEAR     43  40  89 NE3       30.23R
PAGOSA SPRINGS CLEAR     41  33  72 CALM      30.32R
TELLURIDE      CLEAR     41  36  81 CALM      30.40S
WOLF CREEK PAS CLEAR     37  28  70 N6        30.54S
$$

COZ009-010-012-014-032>034-037-058>063-291400-
...CENTRAL COLORADO...

CITY           SKY/WX    TMP DP  RH WIND       PRES   REMARKS
ASPEN          CLEAR     41  38  89 CALM      30.35R
BUENA VISTA    CLEAR     40  36  85 CALM      30.35R
COPPER MTN     CLOUDY    41  37  87 W12       30.56R
BERTHOUD PASS  FOG       34  32  93 NW17G25   30.57R VSB<1/4 WCI  23
COTTONWOOD PAS CLEAR     48  34  57 W10       30.43R
GUNNISON       CLEAR     37  34  87 CALM      30.40R
KREMMLING      FOG       37  36  93 CALM      30.36R VSB 1/4
LEADVILLE      PTCLDY    37  34  89 NE7       30.44R
MONARCH PASS   CLEAR     37  32  81 N3        30.64R
SALIDA         CLEAR     42  38  86 W5        30.41R
SUNLIGHT       CLEAR     45  43  93 CALM      30.52R
WILKERSON PASS NOT AVBL
$$

COZ069>075-291400-
...SAN LUIS VALLEY/SANGRE DE CRISTO MOUNTAINS...

CITY           SKY/WX    TMP DP  RH WIND       PRES   REMARKS
ALAMOSA        PTCLDY    37  34  89 CALM      30.32R
LA VETA PASS   NOT AVBL
SAGUACHE       NOT AVBL
$$

COZ035-036-038>040-291400-
...NORTHERN COLORADO FRONT RANGE...

CITY           SKY/WX    TMP DP  RH WIND       PRES   REMARKS
DENVER INTL AP PTCLDY    57  44  62 SW14      30.10R
DMNS CITY PARK   N/A     56  44  64 S6        30.11S
AURORA         PTCLDY    55  43  66 S8        30.13R
FRONT RANGE AP CLEAR     59  45  58 SW10      30.12R
ERIE MUNI ARPT CLEAR     51  46  84 S3        30.09R
BOULDER MUN AP CLEAR     61  41  48 SW7       30.09R
CENTENNIAL     PTCLDY    56  41  57 SW10      30.14R
BROOMFIELD     PTCLDY    63  43  48 W8        30.13R
FORT COLLINS   PTCLDY    52  48  87 SE3       30.10R
LONGMONT       CLEAR     51  45  80 CALM      30.10R
$$

COZ041-046-047-076>085-087-088-291400-
...PIKES PEAK/PALMER DIVIDE AND SOUTHERN FOOTHILLS...

CITY           SKY/WX    TMP DP  RH WIND       PRES   REMARKS
COLO. SPRINGS  CLEAR     58  39  49 NW9G17    30.18R
A. F. ACADEMY  CLEAR     47  39  73 N5        30.20R
ELLICOTT       CLEAR     52  41  66 CALM      30.15R
FALCON         CLEAR     56  37  49 NW9       30.22R
FORT CARSON    CLEAR     55  41  60 NW9       30.15R
LIMON          CLEAR     51  46  83 NW5       30.11R
MONUMENT HILL  CLEAR     48  37  66 W9        30.21R
TRINIDAD       CLEAR     53  41  63 W16       30.15R
$$

COZ042>045-048>051-090-091-291400-
...NORTHEAST COLORADO...

CITY           SKY/WX    TMP DP  RH WIND       PRES   REMARKS
GREELEY ARPT   PTCLDY    48  41  76 CALM      30.08R
AKRON          CLEAR     55  48  77 W15       30.04R
BURLINGTON     CLEAR     54  49  83 W7        30.02R
WRAY           NOT AVBL
STERLING       CLEAR     54  54 100 S5        30.01R FOG
HOLYOKE        CLEAR     59  52  77 W9        29.98R
FORT MORGAN    CLEAR     51  49  93 W8        30.05R
$$

COZ086-089-092>099-291400-
...SOUTHEAST COLORADO...

CITY           SKY/WX    TMP DP  RH WIND       PRES   REMARKS
PUEBLO         CLEAR     50  45  83 W6        30.10R
LA JUNTA       CLEAR     53  50  89 W8        30.06R
LAMAR          CLEAR     56  51  84 SW8       30.01R
SPRINGFIELD      N/A     57  50  77 W10       30.05R
$$



USA.gov is the U.S. government's official web portal to all federal, state and local government web resources and services.